Location: Miramichi City (Newcastle)
(46.9830°N, 65.5670°W)
Time: 22:33:58
(UTC-03:00)

Iridium 12 - Visible Passes

Search period start: 24 June 2016 00:00
Search period end: 04 July 2016 00:00
Orbit: 776 x 779 km, 86.4° (Epoch: 24 June)

Date Brightness Start Highest point End Pass type
(mag) Time Alt. Az. Time Alt. Az. Time Alt. Az.
24 Jun 6.5 03:33:54 10° N 03:38:55 45° E 03:43:54 10° SSE visible
25 Jun 7.4 03:00:47 10° NNE 03:05:10 26° ENE 03:09:32 10° SE visible
25 Jun 6.0 04:41:09 10° NNW 04:46:03 43° W 04:50:57 10° SSW visible
26 Jun 8.0 02:28:08 10° NNE 02:31:17 16° ENE 02:34:24 10° ESE visible
26 Jun 5.5 04:07:24 10° N 04:12:38 75° W 04:17:50 10° S visible
27 Jun 5.9 03:33:53 10° N 03:39:05 63° E 03:44:16 10° SSE visible
28 Jun 6.8 03:00:36 10° NNE 03:05:25 36° ENE 03:10:12 10° SE visible
28 Jun 6.5 04:41:30 10° NNW 04:46:02 31° W 04:50:34 10° SW visible
29 Jun 7.6 02:27:37 10° NNE 02:31:37 22° ENE 02:35:35 10° ESE visible
29 Jun 5.8 04:07:36 10° NNW 04:12:41 53° W 04:17:42 10° SSW visible
30 Jun 8.1 01:55:23 10° NE 01:57:40 13° ENE 01:59:56 10° E visible
30 Jun 5.5 03:33:57 10° N 03:39:13 88° E 03:43:56 13° S visible
01 Jul 6.2 03:00:31 10° N 03:05:37 50° E 03:10:11 13° SSE visible
01 Jul 6.9 04:41:59 10° NNW 04:45:58 23° W 04:49:57 10° SW visible
02 Jul 7.1 02:27:20 10° NNE 02:31:54 29° ENE 02:36:25 10° SE visible
02 Jul 6.2 04:07:53 10° NNW 04:12:41 38° W 04:16:53 13° SSW visible
03 Jul 7.8 01:54:32 10° NNE 01:58:02 18° ENE 02:01:30 10° ESE visible
03 Jul 5.6 03:34:06 10° N 03:39:18 67° W 03:43:11 18° SSW visible
